Вернуться в каталог

ONEWEB-0549

АктивенСвязьPO
NORAD 56051·PAYLOAD·🇬🇧 United Kingdom

Запущен Mar 26, 2023 с Satish Dhawan Space Centre

Loading…

Ближайшие Пролёты (ближайшие 24 часа)

TLE

СвежийSource: CelesTrak SupGP

Эпоха: Sep 14, 2026, 23:01 UTC

1 56051C 23043F   26257.95919396 -.00002801  00000+0 -67910-2 0  2576
2 56051  87.9274 226.1079 0001815  76.7881   2.8375 13.21830356    13

Отслеживайте ONEWEB-0549 в реальном времени с AllMySat

Download on the App Store